Quincy, IL

9:00 AM CST on November 21, 2019 (GMT -0600)
Quincy Regional-Baldwin

Weather History for KUIN - September, 2019

Change the Weather History Date:

Tuesday, September 10, 2019

  Actual Average Record
Temperature  
Mean Temperature 80 °F 69 °F  
Max Temperature 87 °F 80 °F 100 °F (1933)
Min Temperature 72 °F 58 °F 43 °F (1976)
Degree Days  
Heating Degree Days 0 1  
Month to date heating degree days 0 9  
Since 1 July heating degree days 2 14  
Cooling Degree Days 14 5  
Month to date cooling degree days 70 62  
Year to date cooling degree days 1127 1015  
Growing Degree Days 30 (Base 50)    
Moisture  
Dew Point 71 °F    
Average Humidity 75    
Maximum Humidity 87    
Minimum Humidity 59    
Precipitation  
Precipitation 0.00 in 0.11 in 3.51 in (2014)
Month to date precipitation 0.68 1.11  
Year to date precipitation 31.71 26.86  
Sea Level Pressure  
Sea Level Pressure 30.05 in    
Wind  
Wind Speed 9 mph ()    
Max Wind Speed 16 mph    
Max Gust Speed 24 mph    
Visibility 9.9 miles    
Events      
T = Trace of Precipitation, MM = Missing Value Source: Averaged Metar Reports

Daily Weather History Graph

Daily Weather History Graph

Search for Another Location

Airport or City:

Astronomy

Sep. 10, 2019 Rise Set
Actual Time 6:40 AM CDT 7:21 PM CDT
Civil Twilight 6:13 AM CDT 7:49 PM CDT
Nautical Twilight 5:41 AM CDT 8:21 PM CDT
Astronomical Twilight 5:07 AM CDT 8:54 PM CDT
Moon 5:58 PM CDT (9/10) 3:07 AM CDT (9/10)
Length of Visible Light 13h 35m
Length of Day
12h 41m
Waxing Gibbous, 89% of the Moon is Illuminated
Sep 10
Waxing Gibbous
Sep 13
Full
Sep 21
Last Quarter
Sep 28
New
Oct 5
First Quarter

Hourly Weather History & Observations

Time (CDT) Temp. Heat Index Dew Point Humidity Pressure Visibility Wind Dir Wind Speed Gust Speed Precip Events Conditions
12:54 AM 79.0 °F - 71.1 °F 77% 30.00 in 10.0 mi South 12.7 mph - N/A   Clear
1:54 AM 79.0 °F - 71.1 °F 77% 30.00 in 10.0 mi South 13.8 mph - N/A   Clear
2:54 AM 78.1 °F - 71.1 °F 79% 30.00 in 10.0 mi South 12.7 mph 23.0 mph N/A   Clear
3:54 AM 77.0 °F - 71.1 °F 82% 30.01 in 10.0 mi South 11.5 mph - N/A   Clear
4:54 AM 77.0 °F - 70.0 °F 79% 30.01 in 10.0 mi South 10.4 mph - N/A   Clear
5:54 AM 77.0 °F - 70.0 °F 79% 30.01 in 10.0 mi South 11.5 mph - N/A   Clear
7:54 AM 75.9 °F - 70.0 °F 82% 30.05 in 8.0 mi South 12.7 mph - N/A   Clear
8:54 AM 79.0 °F - 71.1 °F 77% 30.05 in 9.0 mi SSW 10.4 mph - N/A   Clear
9:54 AM 81.0 °F 84.9 °F 71.1 °F 72% 30.08 in 10.0 mi SSW 6.9 mph - N/A   Scattered Clouds
10:54 AM 84.0 °F 89.0 °F 71.1 °F 65% 30.09 in 10.0 mi WSW 9.2 mph - N/A   Mostly Cloudy
11:54 AM 84.0 °F 89.0 °F 71.1 °F 65% 30.09 in 10.0 mi WSW 4.6 mph - N/A   Partly Cloudy
12:54 PM 87.1 °F 92.8 °F 71.1 °F 59% 30.08 in 10.0 mi SSW 5.8 mph - N/A   Clear
1:54 PM 84.0 °F 89.6 °F 72.0 °F 67% 30.08 in 10.0 mi SSE 9.2 mph - N/A   Scattered Clouds
2:54 PM 84.9 °F 90.7 °F 72.0 °F 65% 30.06 in 10.0 mi South 6.9 mph - N/A   Clear
3:54 PM 84.0 °F 89.6 °F 72.0 °F 67% 30.05 in 10.0 mi South 5.8 mph - N/A   Clear
4:54 PM 84.0 °F 90.2 °F 73.0 °F 69% 30.04 in 10.0 mi South 8.1 mph - N/A   Clear
5:54 PM 84.0 °F 89.6 °F 72.0 °F 67% 30.03 in 10.0 mi South 6.9 mph - N/A   Clear
6:54 PM 81.0 °F 85.8 °F 73.0 °F 77% 30.04 in 10.0 mi South 5.8 mph - N/A   Clear
7:54 PM 77.0 °F - 72.0 °F 84% 30.03 in 10.0 mi South 4.6 mph - N/A   Clear
8:54 PM 77.0 °F - 72.0 °F 84% 30.04 in 10.0 mi South 4.6 mph - N/A   Clear
9:54 PM 75.9 °F - 71.1 °F 85% 30.06 in 10.0 mi South 5.8 mph - N/A   Clear
10:54 PM 75.9 °F - 71.1 °F 85% 30.06 in 10.0 mi South 6.9 mph - N/A   Clear
11:54 PM 75.0 °F - 71.1 °F 87% 30.08 in 10.0 mi South 6.9 mph - N/A   Clear